DELTA 1 DEB, 18870

Orbit data source: Space-Track

DELTA 1 DEB, 18870 is space debris in LEO originally from a launch on Tue, 06 Nov 1973 UTC launched from the Air Force Western Test Range (AFWTR). Debris objects in space refer to the collection of defunct objects orbiting the Earth. Examples of debris include non-operational satellites, rocket bodies, and fragments generated from explosions, collisions, or faulty payload assembly.

Loading next visibility...
Identifier
18870, 1973-086HA
Orbit
LEO
Country
Flag of USUS
Related business
Manufacturer
Unknown
Mission
Spacecraft
Bus & Motor
Unknown
Mass
Unknown
Launch date (UTC)
1973-11-06 (53 years ago)
Launch vehicle
Unknown
Launch site
Air Force Western Test Range (AFWTR)
Object type
Payload
Rocket body
Debris
Shape & HBR
Unknown shape, 0.1 m
Radar Cross Section
Medium (>0.1 m² and <1 m²)

Expand to show TLE details & history
Last TLE update: 3 days ago

TLE from 3 days ago
0 DELTA 1 DEB
1 18870U 73086HA  26234.51556601  .00000898  00000-0  10201-1 0  9994
2 18870 101.7707 153.1620 0357787  28.9004 333.1350 11.95496774590989
Epoch: 2026-08-22T12:22Z
TLE epoch observation values (Epoch: 2026-08-22T12:22:24.903Z)
Latitude
0.00006°
Longitude
-3.26664°
Altitude
1,447.896 km
Speed
7.25 km/s
True Right ascension
10h 12m 38s
True Declination
0° 00' 00"
Sunlit
Object was in daylight at epoch
Visualization orbit readout
Latitude
Unknown
Longitude
Unknown
Altitude
Unknown
Speed
Unknown
Apparent Right ascension
Unknown
Apparent Declination
Unknown
Sunlit
N/A
Visualization observer readout
Local Sidereal Time
08:54:29
Azimuth
Unknown
Elevation
Unknown
Doppler factor
Unknown
Orbital elements
Apogee altitude
1,987.68 km
Perigee altitude
1,409.722 km
Semi-major axis
8,076.838 km
Eccentricity
0.03578
Inclination
101.7707°
RAAN
153.162°
Arg. of periapsis
28.9004°
True anomaly
331.20579°
Mean anomaly
333.135°
Eccentric anomaly
332.17823°
Mean motion
2.99007 °/min
Orbital period
120.4 mins
BSTAR
0.010201
Loading maneuver chart data...
Computing Atmospheric mass density...
Loading historical data...
Loading historical data...
Loading historical data...
Loading historical data...
Loading historical data...
Loading historical data...
Loading historical data...

Documentation

Showing up to 5 results
|